Regional Weather Roundup
Issued by NWS

Home | Current Version | Previous Version | Text Only | Print | Product List | Glossary On
Versions: 1 2 3 4 5 6 7 8 9 10 11 12 13 14 15 16 17 18 19 20 21 22 23 24 25 26 27 28 29 30 31 32 33 34 35 36 37 38 39 40 41 42 43 44 45 46 47 48 49 50
000
ASUS43 KMKX 241221
RWRWI

WISCONSIN REGIONAL WEATHER ROUNDUP
NATIONAL WEATHER SERVICE MILWAUKEE/SULLIVAN WI
700 AM CDT THU MAY 24 2018

NOTE: "FAIR" INDICATES FEW OR NO CLOUDS BELOW 12,000 FEET WITH NO
SIGNIFICANT WEATHER AND/OR OBSTRUCTIONS TO VISIBILITY.

WIZ001-002-006>008-014>016-023>028-241300-
NORTHWEST WISCONSIN

CITY           SKY/WX    TMP DP  RH WIND       PRES   REMARKS
SUPERIOR ARPT  RAIN      51  51 100 CALM      30.08F
6HR MIN TEMP:  49; 6HR MAX TEMP:  56; 6HR PCP:  1.81;

ASHLAND        LGT RAIN  65  64  97 S7        30.09S
6HR MIN TEMP:  53; 6HR MAX TEMP:  65; 6HR PCP:  0.19;

HAYWARD        TSTM      64  63  96 E3        30.10F FOG
6HR MIN TEMP:  63; 6HR MAX TEMP:  69; 6HR PCP:  0.79;

SIREN            N/A    N/A N/A N/A MISG        N/A
CUMBERLAND     FAIR      63  59  88 SE3       30.09S
RICE LAKE      FAIR      65  61  87 E3        30.10S
6HR MIN TEMP:  64; 6HR MAX TEMP:  67;

CHETEK         FAIR      64  62  93 SE9       30.10R
6HR MIN TEMP:  61; 6HR MAX TEMP:  66;

LADYSMITH      FAIR      66  60  81 S6        30.13R
6HR MIN TEMP:  64; 6HR MAX TEMP:  66;

EAU CLAIRE     FAIR      68  61  78 S6        30.09R
6HR MIN TEMP:  60; 6HR MAX TEMP:  68;

MENOMONIE      FAIR      66  61  84 E5        30.09R
6HR MIN TEMP:  63; 6HR MAX TEMP:  67;

NEW RICHMOND   FAIR      67  60  77 S7        30.07R
6HR MIN TEMP:  66; 6HR MAX TEMP:  70;

OSCEOLA        PTSUNNY   69  62  78 S5        30.08S
6HR MIN TEMP:  67; 6HR MAX TEMP:  71;

$$

WIZ003>005-009-010-017-018-241300-
NORTH CENTRAL WISCONSIN

CITY           SKY/WX    TMP DP  RH WIND       PRES   REMARKS
MANITOWISH WTR PTSUNNY   62  62 100 NW5       30.15R THUNDER
6HR MIN TEMP:  53; 6HR MAX TEMP:  63;

ARBOR VITAE    CLOUDY    64  62  91 S3        30.14S
6HR MIN TEMP:  57; 6HR MAX TEMP:  64;

WOODRUFF       CLOUDY    64  62  91 S3        30.14S
6HR MIN TEMP:  57; 6HR MAX TEMP:  64;

RHINELANDER    PTSUNNY   66  61  84 CALM      30.16S
6HR MIN TEMP:  56; 6HR MAX TEMP:  66;

EAGLE RIVER    PTSUNNY   60  60 100 CALM      30.15S
6HR MIN TEMP:  51; 6HR MAX TEMP:  60;

LAND O LAKES   FAIR      62  60  94 CALM      30.17S
6HR MIN TEMP:  51; 6HR MAX TEMP:  62;

PHILLIPS       FAIR      66  62  87 S3        30.13R
6HR MIN TEMP:  59; 6HR MAX TEMP:  66;

TOMAHAWK       PTSUNNY   62  61  96 CALM      30.16R
6HR MIN TEMP:  54; 6HR MAX TEMP:  62;

MEDFORD        FAIR      62  59  88 S6        30.14S
6HR MIN TEMP:  59; 6HR MAX TEMP:  62;

MERRILL        CLOUDY    63  62  97 CALM      30.16R
6HR MIN TEMP:  52; 6HR MAX TEMP:  63;

$$

WIZ029-030-035-036-043>047-241300-
CENTRAL WISCONSIN

CITY           SKY/WX    TMP DP  RH WIND       PRES   REMARKS
WAUSAU         CLOUDY    62  60  93 SE5       30.15R
6HR MIN TEMP:  59; 6HR MAX TEMP:  63;

MOSINEE        PTSUNNY   61  61 100 S6        30.17R
MARSHFIELD     FAIR      64  62  93 S10       30.14S
6HR MIN TEMP:  59; 6HR MAX TEMP:  64;

STEVENS POINT  CLOUDY    64  61  91 S5        30.17S
6HR MIN TEMP:  55; 6HR MAX TEMP:  64;

WAUPACA        FAIR      64  64  99 CALM      30.18R
6HR MIN TEMP:  59; 6HR MAX TEMP:  64;

WAUTOMA        FAIR      62  60  93 CALM      30.18S
6HR MIN TEMP:  57; 6HR MAX TEMP:  62;

WISC RAPIDS    CLOUDY    65  59  81 S5        30.17R
6HR MIN TEMP:  58; 6HR MAX TEMP:  65;

CAMP DOUGLAS   MOSUNNY   64  63  94 SE6       30.14S
$$

WIZ011>013-019>022-031-037>040-048>050-241300-
NORTHEAST WISCONSIN

CITY           SKY/WX    TMP DP  RH WIND       PRES   REMARKS
ANTIGO         FAIR      63  60  91 CALM      30.18R
6HR MIN TEMP:  54; 6HR MAX TEMP:  63;

SHAWANO        FAIR      65  60  85 CALM      30.17R
6HR MIN TEMP:  60; 6HR MAX TEMP:  65;

OCONTO         FAIR      61  57  84 CALM      30.17S
6HR MIN TEMP:  52; 6HR MAX TEMP:  61;

STURGEON BAY   FAIR      66  55  67 S3        30.18R
6HR MIN TEMP:  60; 6HR MAX TEMP:  66;

GREEN BAY      FAIR      61  56  83 SE3       30.18R
6HR MIN TEMP:  55; 6HR MAX TEMP:  62;

MANITOWOC      FAIR      56  52  86 E3        30.20R
6HR MIN TEMP:  52; 6HR MAX TEMP:  63;

APPLETON       MOSUNNY   63  54  72 VRB5      30.17R
CLINTONVILLE   FAIR      62  59  90 CALM      30.17R
6HR MIN TEMP:  56; 6HR MAX TEMP:  62;

OSHKOSH        FAIR      63  52  67 S8        30.18R
6HR MIN TEMP:  59; 6HR MAX TEMP:  65;

$$

WIZ032>034-041-042-053>061-241300-
SOUTHWEST WISCONSIN

CITY           SKY/WX    TMP DP  RH WIND       PRES   REMARKS
LA CROSSE      FAIR      68  62  81 S10       30.12S
6HR MIN TEMP:  65; 6HR MAX TEMP:  68;

SPARTA         FAIR      58  57  94 CALM      30.14S
6HR MIN TEMP:  52; 6HR MAX TEMP:  58;

VIROQUA        FAIR      66  59  78 S8        30.17R
6HR MIN TEMP:  64; 6HR MAX TEMP:  67;

BOSCOBEL       FAIR      62  60  93 CALM      30.16S FOG
6HR MIN TEMP:  57; 6HR MAX TEMP:  62;

PRAIRIE DU CHI FAIR      63  60  91 E3        30.14S
6HR MIN TEMP:  61; 6HR MAX TEMP:  65;

PLATTEVILLE    FAIR      64  58  81 SE7       30.17F
6HR MIN TEMP:  62; 6HR MAX TEMP:  67;

$$

WIZ056-057-062-063-064-067-068-241300-
SOUTH CENTRAL WISCONSIN

CITY           SKY/WX    TMP DP  RH WIND       PRES   REMARKS
REEDSBURG      FAIR      64  60  85 CALM      30.17R
6HR MIN TEMP:  58; 6HR MAX TEMP:  64;

BARABOO/DELLS  FAIR      65  56  72 S6        30.17R
6HR MIN TEMP:  61; 6HR MAX TEMP:  65;

LONE ROCK      FAIR      62  61  96 CALM      30.17R
6HR MIN TEMP:  58; 6HR MAX TEMP:  62;

MINERAL POINT  FAIR      64  59  82 SE7       30.18S
MADISON        FAIR      64  53  67 S7        30.18S
6HR MIN TEMP:  58; 6HR MAX TEMP:  67;

MIDDLETON      FAIR      65  55  70 CALM      30.19S
6HR MIN TEMP:  58; 6HR MAX TEMP:  65;

WATERTOWN      FAIR      58  56  94 CALM      30.20S
6HR MIN TEMP:  53; 6HR MAX TEMP:  60;

MONROE         FAIR      63  52  67 S6        30.19S
JANESVILLE     MOSUNNY   61  54  77 CALM      30.19R
$$

WIZ051-052-058>065-066-070>072-241300-
SOUTHEAST WISCONSIN

CITY           SKY/WX    TMP DP  RH WIND       PRES   REMARKS
MILWAUKEE      FAIR      63  51  65 CALM      30.21R
6HR MIN TEMP:  55; 6HR MAX TEMP:  63;

WAUKESHA       SUNNY     61  48  63 CALM      30.22R
MILWAUKEE/TIMM FAIR      59  48  67 CALM      30.22R
RACINE         FAIR      61  55  81 CALM      30.23R
6HR MIN TEMP:  52; 6HR MAX TEMP:  61;

BURLINGTON     FAIR      56  53  90 CALM      30.21R
6HR MIN TEMP:  51; 6HR MAX TEMP:  56;

KENOSHA        FAIR      60  55  83 CALM      30.21R
6HR MIN TEMP:  51; 6HR MAX TEMP:  60;

FOND DU LAC    FAIR      63  49  60 S9        30.19R
6HR MIN TEMP:  56; 6HR MAX TEMP:  63;

SHEBOYGAN      FAIR      60  52  74 CALM      30.19S
6HR MIN TEMP:  53; 6HR MAX TEMP:  60;

WEST BEND      FAIR      55  54  94 CALM      30.21R
JUNEAU         PTSUNNY   58  51  75 SE3       30.20S
6HR MIN TEMP:  57; 6HR MAX TEMP:  62;

$$

LSZ147-162-241300-
LAKE SUPERIOR

STATION/POSITION TIME  TEMP    WIND        PRES    WAVE
                       AIR SEA DIR/SP/G            HT/PER
                 (UTC) (F)     (DEG/KT/KT) (MB)    (FT/S)
W MID LAKE BUOY  1150   40 36  110/  6/  6 1019.1F   0
DEVILS ISLAND    1200   46     250/  2/  3 1019.5R
SAXON HARBOR     1140   66     180/  6/ 12 1018.6R
$$

LMZ867-665-643>646-241300-
LAKE MICHIGAN

STATION/POSITION TIME  TEMP    WIND        PRES    WAVE
                       AIR SEA DIR/SP/G            HT/PER
                 (UTC) (F



USA.gov is the U.S. government's official web portal to all federal, state and local government web resources and services.